Time,TemperatureF,DewpointF,PressureIn,WindDirection,WindDirectionDegrees,WindSpeedMPH,WindSpeedGustMPH,Humidity,HourlyPrecipIn,Conditions,Clouds,dailyrainin,SoftwareType,DateUTC
2015-01-30 00:00:00,43.0,30.0,30.11,WSW,248,3.0,12.0,60,0.00,,,0.00,Weather View 32 v70,2015-01-30 05:00:00,
2015-01-30 00:05:00,42.0,29.1,30.11,South,180,4.0,12.0,60,0.00,,,0.00,Weather View 32 v70,2015-01-30 05:05:00,
2015-01-30 00:10:00,43.0,30.5,30.11,WSW,248,2.0,12.0,61,0.00,,,0.00,Weather View 32 v70,2015-01-30 05:10:00,
2015-01-30 00:15:00,43.0,30.5,30.10,WSW,248,4.0,12.0,61,0.00,,,0.00,Weather View 32 v70,2015-01-30 05:15:00,
2015-01-30 00:20:00,43.0,30.5,30.10,South,180,5.0,12.0,61,0.00,,,0.00,Weather View 32 v70,2015-01-30 05:20:00,
2015-01-30 00:25:00,43.0,30.5,30.10,South,180,4.0,12.0,61,0.00,,,0.00,Weather View 32 v70,2015-01-30 05:25:00,
2015-01-30 00:30:00,43.0,30.9,30.10,SSE,158,5.0,12.0,62,0.00,,,0.00,Weather View 32 v70,2015-01-30 05:30:00,
2015-01-30 00:35:00,43.0,30.5,30.10,South,180,4.0,12.0,61,0.00,,,0.00,Weather View 32 v70,2015-01-30 05:35:00,
2015-01-30 00:40:00,43.0,30.9,30.10,South,180,1.0,12.0,62,0.00,,,0.00,Weather View 32 v70,2015-01-30 05:40:00,
2015-01-30 00:45:00,43.0,30.9,30.10,South,180,6.0,12.0,62,0.00,,,0.00,Weather View 32 v70,2015-01-30 05:45:00,
2015-01-30 00:50:00,43.0,30.9,30.09,South,180,8.0,12.0,62,0.00,,,0.00,Weather View 32 v70,2015-01-30 05:50:00,
2015-01-30 00:55:00,44.0,31.8,30.09,WSW,248,5.0,12.0,62,0.00,,,0.00,Weather View 32 v70,2015-01-30 05:55:00,
2015-01-30 01:00:00,44.0,31.8,30.09,WSW,248,2.0,12.0,62,0.00,,,0.00,Weather View 32 v70,2015-01-30 06:00:00,
2015-01-30 01:05:00,44.0,31.4,30.09,South,180,1.0,12.0,61,0.00,,,0.00,Weather View 32 v70,2015-01-30 06:05:00,
2015-01-30 01:10:00,44.0,31.8,30.09,WSW,248,3.0,12.0,62,0.00,,,0.00,Weather View 32 v70,2015-01-30 06:10:00,
2015-01-30 01:15:00,44.0,31.8,30.09,WSW,248,1.0,11.0,62,0.00,,,0.00,Weather View 32 v70,2015-01-30 06:15:00,
2015-01-30 01:20:00,44.0,31.8,30.09,WSW,248,4.0,11.0,62,0.00,,,0.00,Weather View 32 v70,2015-01-30 06:20:00,
2015-01-30 01:25:00,44.0,31.8,30.09,South,180,1.0,11.0,62,0.00,,,0.00,Weather View 32 v70,2015-01-30 06:25:00,
2015-01-30 01:30:00,44.0,31.8,30.09,South,180,3.0,11.0,62,0.00,,,0.00,Weather View 32 v70,2015-01-30 06:30:00,
2015-01-30 01:35:00,44.0,31.8,30.09,WSW,248,1.0,11.0,62,0.00,,,0.00,Weather View 32 v70,2015-01-30 06:35:00,
2015-01-30 01:40:00,44.0,31.8,30.09,South,180,3.0,11.0,62,0.00,,,0.00,Weather View 32 v70,2015-01-30 06:40:00,
2015-01-30 01:45:00,44.0,31.8,30.09,South,180,3.0,11.0,62,0.00,,,0.00,Weather View 32 v70,2015-01-30 06:45:00,
2015-01-30 01:50:00,44.0,31.8,30.08,South,180,3.0,11.0,62,0.00,,,0.00,Weather View 32 v70,2015-01-30 06:50:00,
2015-01-30 01:55:00,44.0,31.8,30.07,South,180,4.0,10.0,62,0.00,,,0.00,Weather View 32 v70,2015-01-30 06:55:00,
2015-01-30 02:00:00,45.0,33.1,30.07,WSW,248,1.0,11.0,63,0.00,,,0.00,Weather View 32 v70,2015-01-30 07:00:00,
2015-01-30 02:05:00,45.0,33.1,30.08,WSW,248,1.0,12.0,63,0.00,,,0.00,Weather View 32 v70,2015-01-30 07:05:00,
2015-01-30 02:10:00,45.0,32.7,30.09,NNW,338,5.0,12.0,62,0.00,,,0.00,Weather View 32 v70,2015-01-30 07:10:00,
2015-01-30 02:15:00,45.0,32.7,30.09,West,270,8.0,12.0,62,0.00,,,0.00,Weather View 32 v70,2015-01-30 07:15:00,
2015-01-30 02:20:00,45.0,32.7,30.09,WSW,248,5.0,12.0,62,0.00,,,0.00,Weather View 32 v70,2015-01-30 07:20:00,
2015-01-30 02:25:00,45.0,32.7,30.09,WSW,248,3.0,12.0,62,0.00,,,0.00,Weather View 32 v70,2015-01-30 07:25:00,
2015-01-30 02:30:00,46.0,33.7,30.09,West,270,6.0,12.0,62,0.00,,,0.00,Weather View 32 v70,2015-01-30 07:30:00,
2015-01-30 02:35:00,45.0,32.7,30.10,West,270,4.0,12.0,62,0.00,,,0.00,Weather View 32 v70,2015-01-30 07:35:00,
2015-01-30 02:40:00,46.0,33.7,30.09,West,270,3.0,12.0,62,0.00,,,0.00,Weather View 32 v70,2015-01-30 07:40:00,
2015-01-30 02:45:00,45.0,32.7,30.10,West,270,6.0,12.0,62,0.00,,,0.00,Weather View 32 v70,2015-01-30 07:45:00,
2015-01-30 02:50:00,46.0,33.7,30.10,WSW,248,3.0,12.0,62,0.00,,,0.00,Weather View 32 v70,2015-01-30 07:50:00,
2015-01-30 02:55:00,45.0,32.7,30.10,West,270,7.0,12.0,62,0.00,,,0.00,Weather View 32 v70,2015-01-30 07:55:00,
2015-01-30 03:00:00,45.0,33.1,30.10,NNW,338,5.0,12.0,63,0.00,,,0.00,Weather View 32 v70,2015-01-30 08:00:00,
2015-01-30 03:05:00,46.0,33.7,30.10,West,270,3.0,11.0,62,0.00,,,0.00,Weather View 32 v70,2015-01-30 08:05:00,
2015-01-30 03:11:00,46.0,34.1,30.10,West,270,2.0,11.0,63,0.00,,,0.00,Weather View 32 v70,2015-01-30 08:11:00,
2015-01-30 03:16:00,46.0,33.7,30.10,NNW,338,4.0,11.0,62,0.00,,,0.00,Weather View 32 v70,2015-01-30 08:16:00,
2015-01-30 03:20:00,46.0,33.7,30.09,West,270,3.0,11.0,62,0.00,,,0.00,Weather View 32 v70,2015-01-30 08:20:00,
2015-01-30 03:26:00,46.0,33.7,30.09,West,270,6.0,11.0,62,0.00,,,0.00,Weather View 32 v70,2015-01-30 08:26:00,
2015-01-30 03:31:00,45.0,32.7,30.09,WSW,248,3.0,11.0,62,0.00,,,0.00,Weather View 32 v70,2015-01-30 08:31:00,
2015-01-30 03:36:00,45.0,33.1,30.10,West,270,2.0,11.0,63,0.00,,,0.00,Weather View 32 v70,2015-01-30 08:36:00,
2015-01-30 03:41:00,45.0,33.1,30.10,WSW,248,3.0,11.0,63,0.00,,,0.00,Weather View 32 v70,2015-01-30 08:41:00,
2015-01-30 03:46:00,44.0,32.2,30.10,West,270,6.0,11.0,63,0.00,,,0.00,Weather View 32 v70,2015-01-30 08:46:00,
2015-01-30 03:51:00,44.0,32.6,30.09,WSW,248,3.0,11.0,64,0.00,,,0.00,Weather View 32 v70,2015-01-30 08:51:00,
2015-01-30 03:56:00,44.0,32.6,30.10,WSW,248,3.0,11.0,64,0.00,,,0.00,Weather View 32 v70,2015-01-30 08:56:00,
2015-01-30 04:01:00,43.0,32.0,30.10,WSW,248,3.0,11.0,65,0.00,,,0.00,Weather View 32 v70,2015-01-30 09:01:00,
2015-01-30 04:06:00,43.0,32.0,30.09,WSW,248,3.0,11.0,65,0.00,,,0.00,Weather View 32 v70,2015-01-30 09:06:00,
2015-01-30 04:11:00,43.0,32.8,30.10,WSW,248,3.0,11.0,67,0.00,,,0.00,Weather View 32 v70,2015-01-30 09:11:00,
2015-01-30 04:16:00,43.0,33.1,30.10,West,270,3.0,10.0,68,0.00,,,0.00,Weather View 32 v70,2015-01-30 09:16:00,
2015-01-30 04:21:00,43.0,33.1,30.10,West,270,6.0,10.0,68,0.00,,,0.00,Weather View 32 v70,2015-01-30 09:21:00,
2015-01-30 04:26:00,43.0,33.1,30.10,West,270,6.0,10.0,68,0.00,,,0.00,Weather View 32 v70,2015-01-30 09:26:00,
2015-01-30 04:31:00,43.0,33.1,30.10,West,270,5.0,9.0,68,0.00,,,0.00,Weather View 32 v70,2015-01-30 09:31:00,
2015-01-30 04:36:00,43.0,33.1,30.10,West,270,3.0,9.0,68,0.00,,,0.00,Weather View 32 v70,2015-01-30 09:36:00,
2015-01-30 04:41:00,42.0,32.2,30.11,West,270,1.0,9.0,68,0.00,,,0.00,Weather View 32 v70,2015-01-30 09:41:00,
2015-01-30 04:46:00,42.0,32.6,30.11,West,270,5.0,9.0,69,0.00,,,0.00,Weather View 32 v70,2015-01-30 09:46:00,
2015-01-30 04:51:00,42.0,32.6,30.11,West,270,3.0,7.0,69,0.00,,,0.00,Weather View 32 v70,2015-01-30 09:51:00,
2015-01-30 04:56:00,42.0,32.9,30.12,West,270,4.0,8.0,70,0.00,,,0.00,Weather View 32 v70,2015-01-30 09:56:00,
2015-01-30 05:01:00,42.0,32.9,30.12,WSW,248,3.0,8.0,70,0.00,,,0.00,Weather View 32 v70,2015-01-30 10:01:00,
2015-01-30 05:06:00,42.0,32.9,30.12,West,270,6.0,8.0,70,0.00,,,0.00,Weather View 32 v70,2015-01-30 10:06:00,
2015-01-30 05:11:00,43.0,33.9,30.12,NNW,338,3.0,9.0,70,0.00,,,0.00,Weather View 32 v70,2015-01-30 10:11:00,
2015-01-30 05:16:00,43.0,33.5,30.12,NNW,338,2.0,9.0,69,0.00,,,0.00,Weather View 32 v70,2015-01-30 10:16:00,
2015-01-30 05:21:00,42.0,32.9,30.13,NNW,338,3.0,9.0,70,0.00,,,0.00,Weather View 32 v70,2015-01-30 10:21:00,
2015-01-30 05:26:00,42.0,32.9,30.13,NNW,338,5.0,9.0,70,0.00,,,0.00,Weather View 32 v70,2015-01-30 10:26:00,
2015-01-30 05:31:00,42.0,32.9,30.13,NNW,338,6.0,9.0,70,0.00,,,0.00,Weather View 32 v70,2015-01-30 10:31:00,
2015-01-30 05:36:00,43.0,33.9,30.13,NNW,338,11.0,12.0,70,0.00,,,0.00,Weather View 32 v70,2015-01-30 10:36:00,
2015-01-30 05:41:00,43.0,33.9,30.13,NNW,338,5.0,12.0,70,0.00,,,0.00,Weather View 32 v70,2015-01-30 10:41:00,
2015-01-30 05:46:00,43.0,33.9,30.14,North,0,6.0,12.0,70,0.00,,,0.00,Weather View 32 v70,2015-01-30 10:46:00,
2015-01-30 05:51:00,43.0,33.9,30.14,NNW,338,8.0,12.0,70,0.00,,,0.00,Weather View 32 v70,2015-01-30 10:51:00,
2015-01-30 05:57:00,43.0,33.9,30.15,NNW,338,8.0,14.0,70,0.00,,,0.00,Weather View 32 v70,2015-01-30 10:57:00,
2015-01-30 06:02:00,43.0,33.5,30.15,North,0,6.0,16.0,69,0.00,,,0.00,Weather View 32 v70,2015-01-30 11:02:00,
2015-01-30 06:07:00,43.0,33.1,30.15,NNW,338,6.0,16.0,68,0.00,,,0.00,Weather View 32 v70,2015-01-30 11:07:00,
2015-01-30 06:12:00,43.0,33.1,30.16,NNW,338,10.0,17.0,68,0.00,,,0.00,Weather View 32 v70,2015-01-30 11:12:00,
2015-01-30 06:17:00,43.0,33.1,30.16,NNW,338,10.0,17.0,68,0.00,,,0.00,Weather View 32 v70,2015-01-30 11:17:00,
2015-01-30 06:22:00,43.0,32.8,30.17,NNW,338,6.0,18.0,67,0.00,,,0.00,Weather View 32 v70,2015-01-30 11:22:00,
2015-01-30 06:27:00,43.0,33.1,30.17,NNW,338,7.0,18.0,68,0.00,,,0.00,Weather View 32 v70,2015-01-30 11:27:00,
2015-01-30 06:32:00,43.0,33.1,30.17,NNW,338,6.0,18.0,68,0.00,,,0.00,Weather View 32 v70,2015-01-30 11:32:00,
2015-01-30 06:37:00,42.0,32.2,30.17,WSW,248,6.0,18.0,68,0.00,,,0.00,Weather View 32 v70,2015-01-30 11:37:00,
2015-01-30 06:42:00,42.0,32.2,30.18,NNW,338,11.0,18.0,68,0.00,,,0.00,Weather View 32 v70,2015-01-30 11:42:00,
2015-01-30 06:47:00,42.0,32.2,30.18,NNW,338,7.0,18.0,68,0.00,,,0.00,Weather View 32 v70,2015-01-30 11:47:00,
2015-01-30 06:52:00,42.0,31.8,30.18,NNW,338,3.0,18.0,67,0.00,,,0.00,Weather View 32 v70,2015-01-30 11:52:00,
2015-01-30 06:57:00,42.0,31.8,30.18,NNW,338,6.0,18.0,67,0.00,,,0.00,Weather View 32 v70,2015-01-30 11:57:00,
2015-01-30 07:02:00,42.0,31.5,30.18,North,0,10.0,18.0,66,0.00,,,0.00,Weather View 32 v70,2015-01-30 12:02:00,
2015-01-30 07:07:00,42.0,31.1,30.18,West,270,10.0,18.0,65,0.00,,,0.00,Weather View 32 v70,2015-01-30 12:07:00,
2015-01-30 07:12:00,42.0,30.7,30.19,NNW,338,12.0,18.0,64,0.00,,,0.00,Weather View 32 v70,2015-01-30 12:12:00,
2015-01-30 07:17:00,42.0,29.9,30.19,NNW,338,19.0,19.0,62,0.00,,,0.00,Weather View 32 v70,2015-01-30 12:17:00,
2015-01-30 07:22:00,42.0,29.5,30.19,NNW,338,18.0,20.0,61,0.00,,,0.00,Weather View 32 v70,2015-01-30 12:22:00,
2015-01-30 07:27:00,42.0,29.5,30.19,NNW,338,6.0,24.0,61,0.00,,,0.00,Weather View 32 v70,2015-01-30 12:27:00,
2015-01-30 07:32:00,42.0,29.9,30.20,NNW,338,5.0,24.0,62,0.00,,,0.00,Weather View 32 v70,2015-01-30 12:32:00,
2015-01-30 07:37:00,41.0,29.4,30.20,NNW,338,5.0,24.0,63,0.00,,,0.00,Weather View 32 v70,2015-01-30 12:37:00,
2015-01-30 07:42:00,41.0,29.4,30.19,West,270,10.0,24.0,63,0.00,,,0.00,Weather View 32 v70,2015-01-30 12:42:00,
2015-01-30 07:47:00,41.0,29.0,30.20,West,270,5.0,24.0,62,0.00,,,0.00,Weather View 32 v70,2015-01-30 12:47:00,
2015-01-30 07:52:00,41.0,29.4,30.19,West,270,8.0,24.0,63,0.00,,,0.00,Weather View 32 v70,2015-01-30 12:52:00,
2015-01-30 07:57:00,41.0,29.4,30.19,NNW,338,5.0,24.0,63,0.00,,,0.00,Weather View 32 v70,2015-01-30 12:57:00,
2015-01-30 08:02:00,41.0,29.4,30.20,West,270,3.0,24.0,63,0.00,,,0.00,Weather View 32 v70,2015-01-30 13:02:00,
2015-01-30 08:07:00,41.0,29.4,30.20,NNW,338,13.0,24.0,63,0.00,,,0.00,Weather View 32 v70,2015-01-30 13:07:00,
2015-01-30 08:12:00,41.0,29.4,30.20,NNW,338,8.0,24.0,63,0.00,,,0.00,Weather View 32 v70,2015-01-30 13:12:00,
2015-01-30 08:17:00,41.0,29.4,30.20,NNW,338,6.0,24.0,63,0.00,,,0.00,Weather View 32 v70,2015-01-30 13:17:00,
2015-01-30 08:22:00,41.0,29.4,30.21,NNW,338,6.0,24.0,63,0.00,,,0.00,Weather View 32 v70,2015-01-30 13:22:00,
2015-01-30 08:27:00,43.0,31.2,30.21,NNW,338,5.0,16.0,63,0.00,,,0.00,Weather View 32 v70,2015-01-30 13:27:00,
2015-01-30 08:32:00,42.0,30.3,30.21,NNW,338,5.0,16.0,63,0.00,,,0.00,Weather View 32 v70,2015-01-30 13:32:00,
2015-01-30 08:38:00,42.0,30.3,30.22,NNW,338,5.0,16.0,63,0.00,,,0.00,Weather View 32 v70,2015-01-30 13:38:00,
2015-01-30 08:43:00,42.0,29.9,30.22,WSW,248,8.0,16.0,62,0.00,,,0.00,Weather View 32 v70,2015-01-30 13:43:00,
2015-01-30 08:48:00,42.0,29.5,30.22,NNW,338,7.0,16.0,61,0.00,,,0.00,Weather View 32 v70,2015-01-30 13:48:00,
2015-01-30 08:53:00,43.0,30.5,30.22,NNW,338,6.0,16.0,61,0.00,,,0.00,Weather View 32 v70,2015-01-30 13:53:00,
2015-01-30 08:58:00,42.0,28.7,30.22,North,0,8.0,19.0,59,0.00,,,0.00,Weather View 32 v70,2015-01-30 13:58:00,
2015-01-30 09:03:00,43.0,29.2,30.22,NNW,338,7.0,19.0,58,0.00,,,0.00,Weather View 32 v70,2015-01-30 14:03:00,
2015-01-30 09:08:00,42.0,28.3,30.23,West,270,8.0,24.0,58,0.00,,,0.00,Weather View 32 v70,2015-01-30 14:08:00,
2015-01-30 09:13:00,43.0,28.8,30.23,NNW,338,5.0,24.0,57,0.00,,,0.00,Weather View 32 v70,2015-01-30 14:13:00,
2015-01-30 09:18:00,43.0,28.8,30.23,NNW,338,8.0,24.0,57,0.00,,,0.00,Weather View 32 v70,2015-01-30 14:18:00,
2015-01-30 09:23:00,43.0,28.4,30.23,NNW,338,9.0,24.0,56,0.00,,,0.00,Weather View 32 v70,2015-01-30 14:23:00,
2015-01-30 09:28:00,43.0,27.9,30.24,NNW,338,8.0,24.0,55,0.00,,,0.00,Weather View 32 v70,2015-01-30 14:28:00,
2015-01-30 09:33:00,43.0,27.9,30.24,NNW,338,10.0,24.0,55,0.00,,,0.00,Weather View 32 v70,2015-01-30 14:33:00,
2015-01-30 09:38:00,43.0,27.9,30.24,North,0,5.0,24.0,55,0.00,,,0.00,Weather View 32 v70,2015-01-30 14:38:00,
2015-01-30 09:43:00,43.0,27.5,30.24,West,270,9.0,24.0,54,0.00,,,0.00,Weather View 32 v70,2015-01-30 14:43:00,
2015-01-30 09:48:00,43.0,27.0,30.25,NNW,338,12.0,27.0,53,0.00,,,0.00,Weather View 32 v70,2015-01-30 14:48:00,
2015-01-30 09:53:00,43.0,27.0,30.25,NNW,338,14.0,27.0,53,0.00,,,0.00,Weather View 32 v70,2015-01-30 14:53:00,
2015-01-30 09:58:00,43.0,27.0,30.25,NNW,338,6.0,27.0,53,0.00,,,0.00,Weather View 32 v70,2015-01-30 14:58:00,
2015-01-30 10:03:00,43.0,27.0,30.25,North,0,6.0,27.0,53,0.00,,,0.00,Weather View 32 v70,2015-01-30 15:03:00,
2015-01-30 10:08:00,44.0,27.9,30.25,West,270,9.0,27.0,53,0.00,,,0.00,Weather View 32 v70,2015-01-30 15:08:00,
2015-01-30 10:13:00,44.0,27.9,30.25,North,0,6.0,27.0,53,0.00,,,0.00,Weather View 32 v70,2015-01-30 15:13:00,
2015-01-30 10:18:00,44.0,27.5,30.25,NNW,338,10.0,27.0,52,0.00,,,0.00,Weather View 32 v70,2015-01-30 15:18:00,
2015-01-30 10:23:00,44.0,27.0,30.25,NNW,338,9.0,27.0,51,0.00,,,0.00,Weather View 32 v70,2015-01-30 15:23:00,
2015-01-30 10:28:00,44.0,27.5,30.25,NNW,338,9.0,27.0,52,0.00,,,0.00,Weather View 32 v70,2015-01-30 15:28:00,
2015-01-30 10:33:00,44.0,27.5,30.25,West,270,8.0,27.0,52,0.00,,,0.00,Weather View 32 v70,2015-01-30 15:33:00,
2015-01-30 10:38:00,44.0,27.5,30.25,NNW,338,10.0,27.0,52,0.00,,,0.00,Weather View 32 v70,2015-01-30 15:38:00,
2015-01-30 10:43:00,44.0,27.0,30.26,NNW,338,11.0,27.0,51,0.00,,,0.00,Weather View 32 v70,2015-01-30 15:43:00,
2015-01-30 10:48:00,44.0,27.5,30.26,NNW,338,11.0,24.0,52,0.00,,,0.00,Weather View 32 v70,2015-01-30 15:48:00,
2015-01-30 10:53:00,45.0,27.9,30.26,West,270,6.0,24.0,51,0.00,,,0.00,Weather View 32 v70,2015-01-30 15:53:00,
2015-01-30 10:58:00,44.0,26.0,30.26,NNW,338,19.0,24.0,49,0.00,,,0.00,Weather View 32 v70,2015-01-30 15:58:00,
2015-01-30 11:03:00,45.0,27.0,30.27,NNW,338,14.0,23.0,49,0.00,,,0.00,Weather View 32 v70,2015-01-30 16:03:00,
2015-01-30 11:08:00,45.0,26.5,30.27,NNW,338,7.0,23.0,48,0.00,,,0.00,Weather View 32 v70,2015-01-30 16:08:00,
2015-01-30 11:14:00,44.0,25.5,30.27,NNW,338,8.0,26.0,48,0.00,,,0.00,Weather View 32 v70,2015-01-30 16:14:00,
2015-01-30 11:19:00,44.0,25.0,30.27,North,0,9.0,26.0,47,0.00,,,0.00,Weather View 32 v70,2015-01-30 16:19:00,
2015-01-30 11:24:00,44.0,23.5,30.27,North,0,13.0,26.0,44,0.00,,,0.00,Weather View 32 v70,2015-01-30 16:24:00,
2015-01-30 11:29:00,44.0,23.5,30.26,WSW,248,6.0,26.0,44,0.00,,,0.00,Weather View 32 v70,2015-01-30 16:29:00,
2015-01-30 11:34:00,45.0,24.4,30.27,West,270,6.0,26.0,44,0.00,,,0.00,Weather View 32 v70,2015-01-30 16:34:00,
2015-01-30 11:39:00,45.0,23.3,30.27,NNW,338,4.0,26.0,42,0.00,,,0.00,Weather View 32 v70,2015-01-30 16:39:00,
2015-01-30 11:44:00,45.0,23.8,30.27,NNW,338,21.0,26.0,43,0.00,,,0.00,Weather View 32 v70,2015-01-30 16:44:00,
2015-01-30 11:49:00,45.0,22.7,30.27,NNW,338,16.0,26.0,41,0.00,,,0.00,Weather View 32 v70,2015-01-30 16:49:00,
2015-01-30 11:54:00,45.0,22.7,30.27,West,270,5.0,26.0,41,0.00,,,0.00,Weather View 32 v70,2015-01-30 16:54:00,
2015-01-30 11:59:00,46.0,23.6,30.27,NNW,338,12.0,26.0,41,0.00,,,0.00,Weather View 32 v70,2015-01-30 16:59:00,
2015-01-30 12:04:00,46.0,23.0,30.27,West,270,6.0,26.0,40,0.00,,,0.00,Weather View 32 v70,2015-01-30 17:04:00,
2015-01-30 12:09:00,46.0,23.6,30.26,NNW,338,9.0,26.0,41,0.00,,,0.00,Weather View 32 v70,2015-01-30 17:09:00,
2015-01-30 12:14:00,46.0,23.6,30.26,NNW,338,2.0,26.0,41,0.00,,,0.00,Weather View 32 v70,2015-01-30 17:14:00,
2015-01-30 12:19:00,46.0,23.0,30.26,NNW,338,11.0,24.0,40,0.00,,,0.00,Weather View 32 v70,2015-01-30 17:19:00,
2015-01-30 12:24:00,47.0,23.9,30.26,North,0,5.0,24.0,40,0.00,,,0.00,Weather View 32 v70,2015-01-30 17:24:00,
2015-01-30 12:29:00,46.0,21.8,30.26,North,0,3.0,24.0,38,0.00,,,0.00,Weather View 32 v70,2015-01-30 17:29:00,
2015-01-30 12:34:00,46.0,22.4,30.26,North,0,5.0,24.0,39,0.00,,,0.00,Weather View 32 v70,2015-01-30 17:34:00,
2015-01-30 12:39:00,46.0,21.8,30.26,NNW,338,15.0,24.0,38,0.00,,,0.00,Weather View 32 v70,2015-01-30 17:39:00,
2015-01-30 12:44:00,46.0,21.1,30.26,WSW,248,7.0,24.0,37,0.00,,,0.00,Weather View 32 v70,2015-01-30 17:44:00,
2015-01-30 12:49:00,46.0,21.1,30.26,NNW,338,9.0,28.0,37,0.00,,,0.00,Weather View 32 v70,2015-01-30 17:49:00,
2015-01-30 12:54:00,47.0,22.0,30.26,NNW,338,13.0,28.0,37,0.00,,,0.00,Weather View 32 v70,2015-01-30 17:54:00,
2015-01-30 12:59:00,47.0,21.4,30.26,NNW,338,13.0,28.0,36,0.00,,,0.00,Weather View 32 v70,2015-01-30 17:59:00,
2015-01-30 13:04:00,46.0,19.8,30.25,NNW,338,10.0,28.0,35,0.00,,,0.00,Weather View 32 v70,2015-01-30 18:04:00,
2015-01-30 13:09:00,46.0,19.8,30.25,North,0,8.0,28.0,35,0.00,,,0.00,Weather View 32 v70,2015-01-30 18:09:00,
2015-01-30 13:14:00,47.0,20.7,30.25,NNW,338,10.0,28.0,35,0.00,,,0.00,Weather View 32 v70,2015-01-30 18:14:00,
2015-01-30 13:19:00,46.0,19.2,30.25,West,270,11.0,28.0,34,0.00,,,0.00,Weather View 32 v70,2015-01-30 18:19:00,
2015-01-30 13:24:00,47.0,20.0,30.25,West,270,8.0,28.0,34,0.00,,,0.00,Weather View 32 v70,2015-01-30 18:24:00,
2015-01-30 13:29:00,47.0,19.3,30.25,WSW,248,12.0,28.0,33,0.00,,,0.00,Weather View 32 v70,2015-01-30 18:29:00,
2015-01-30 13:34:00,46.0,18.5,30.26,NNW,338,17.0,28.0,33,0.00,,,0.00,Weather View 32 v70,2015-01-30 18:34:00,
2015-01-30 13:39:00,46.0,19.2,30.26,North,0,5.0,28.0,34,0.00,,,0.00,Weather View 32 v70,2015-01-30 18:39:00,
2015-01-30 13:44:00,46.0,19.2,30.25,NNW,338,7.0,28.0,34,0.00,,,0.00,Weather View 32 v70,2015-01-30 18:44:00,
2015-01-30 13:50:00,47.0,20.7,30.25,West,270,8.0,25.0,35,0.00,,,0.00,Weather View 32 v70,2015-01-30 18:50:00,
2015-01-30 13:55:00,46.0,18.5,30.26,NNW,338,7.0,25.0,33,0.00,,,0.00,Weather View 32 v70,2015-01-30 18:55:00,
2015-01-30 14:00:00,46.0,19.8,30.26,NNW,338,11.0,25.0,35,0.00,,,0.00,Weather View 32 v70,2015-01-30 19:00:00,
2015-01-30 14:05:00,47.0,20.7,30.25,WSW,248,8.0,25.0,35,0.00,,,0.00,Weather View 32 v70,2015-01-30 19:05:00,
2015-01-30 14:10:00,47.0,21.4,30.25,West,270,12.0,25.0,36,0.00,,,0.00,Weather View 32 v70,2015-01-30 19:10:00,
2015-01-30 14:15:00,47.0,20.7,30.25,NNW,338,15.0,25.0,35,0.00,,,0.00,Weather View 32 v70,2015-01-30 19:15:00,
2015-01-30 14:20:00,47.0,21.4,30.25,NNW,338,3.0,24.0,36,0.00,,,0.00,Weather View 32 v70,2015-01-30 19:20:00,
2015-01-30 14:25:00,47.0,20.7,30.25,NNW,338,8.0,24.0,35,0.00,,,0.00,Weather View 32 v70,2015-01-30 19:25:00,
2015-01-30 14:30:00,47.0,20.0,30.25,West,270,10.0,24.0,34,0.00,,,0.00,Weather View 32 v70,2015-01-30 19:30:00,
2015-01-30 14:35:00,47.0,20.7,30.25,West,270,15.0,24.0,35,0.00,,,0.00,Weather View 32 v70,2015-01-30 19:35:00,
2015-01-30 14:40:00,47.0,21.4,30.26,West,270,13.0,23.0,36,0.00,,,0.00,Weather View 32 v70,2015-01-30 19:40:00,
2015-01-30 14:45:00,48.0,20.9,30.26,NNW,338,12.0,22.0,34,0.00,,,0.00,Weather View 32 v70,2015-01-30 19:45:00,
2015-01-30 14:50:00,47.0,20.0,30.26,West,270,7.0,21.0,34,0.00,,,0.00,Weather View 32 v70,2015-01-30 19:50:00,
2015-01-30 14:55:00,47.0,20.7,30.26,West,270,7.0,22.0,35,0.00,,,0.00,Weather View 32 v70,2015-01-30 19:55:00,
2015-01-30 15:00:00,47.0,20.0,30.26,NNW,338,7.0,22.0,34,0.00,,,0.00,Weather View 32 v70,2015-01-30 20:00:00,
2015-01-30 15:05:00,47.0,20.0,30.26,NNW,338,6.0,22.0,34,0.00,,,0.00,Weather View 32 v70,2015-01-30 20:05:00,
2015-01-30 15:10:00,47.0,20.0,30.26,West,270,13.0,22.0,34,0.00,,,0.00,Weather View 32 v70,2015-01-30 20:10:00,
2015-01-30 15:15:00,48.0,20.9,30.26,West,270,19.0,22.0,34,0.00,,,0.00,Weather View 32 v70,2015-01-30 20:15:00,
2015-01-30 15:20:00,47.0,19.3,30.26,NNW,338,9.0,22.0,33,0.00,,,0.00,Weather View 32 v70,2015-01-30 20:20:00,
2015-01-30 15:25:00,47.0,20.0,30.25,West,270,9.0,22.0,34,0.00,,,0.00,Weather View 32 v70,2015-01-30 20:25:00,
2015-01-30 15:30:00,47.0,19.3,30.26,NNW,338,8.0,22.0,33,0.00,,,0.00,Weather View 32 v70,2015-01-30 20:30:00,
2015-01-30 15:35:00,47.0,19.3,30.26,NNW,338,8.0,22.0,33,0.00,,,0.00,Weather View 32 v70,2015-01-30 20:35:00,
2015-01-30 15:40:00,47.0,20.0,30.26,WSW,248,5.0,22.0,34,0.00,,,0.00,Weather View 32 v70,2015-01-30 20:40:00,
2015-01-30 15:45:00,47.0,20.0,30.26,North,0,6.0,22.0,34,0.00,,,0.00,Weather View 32 v70,2015-01-30 20:45:00,
2015-01-30 15:50:00,47.0,19.3,30.27,NNW,338,10.0,22.0,33,0.00,,,0.00,Weather View 32 v70,2015-01-30 20:50:00,
2015-01-30 15:55:00,47.0,20.0,30.27,NNW,338,6.0,22.0,34,0.00,,,0.00,Weather View 32 v70,2015-01-30 20:55:00,
2015-01-30 16:00:00,47.0,20.0,30.27,NNW,338,10.0,22.0,34,0.00,,,0.00,Weather View 32 v70,2015-01-30 21:00:00,
2015-01-30 16:05:00,47.0,19.3,30.27,West,270,9.0,22.0,33,0.00,,,0.00,Weather View 32 v70,2015-01-30 21:05:00,
2015-01-30 16:10:00,47.0,19.3,30.28,NNW,338,14.0,22.0,33,0.00,,,0.00,Weather View 32 v70,2015-01-30 21:10:00,
2015-01-30 16:15:00,46.0,17.7,30.28,NNW,338,10.0,21.0,32,0.00,,,0.00,Weather View 32 v70,2015-01-30 21:15:00,
2015-01-30 16:20:00,46.0,19.2,30.28,West,270,11.0,21.0,34,0.00,,,0.00,Weather View 32 v70,2015-01-30 21:20:00,
2015-01-30 16:25:00,46.0,18.5,30.28,NNW,338,7.0,25.0,33,0.00,,,0.00,Weather View 32 v70,2015-01-30 21:25:00,
2015-01-30 16:30:00,46.0,19.2,30.28,NNW,338,3.0,25.0,34,0.00,,,0.00,Weather View 32 v70,2015-01-30 21:30:00,
2015-01-30 16:35:00,46.0,19.2,30.28,NNW,338,9.0,25.0,34,0.00,,,0.00,Weather View 32 v70,2015-01-30 21:35:00,
2015-01-30 16:40:00,46.0,19.2,30.28,NNW,338,7.0,25.0,34,0.00,,,0.00,Weather View 32 v70,2015-01-30 21:40:00,
2015-01-30 16:45:00,46.0,19.2,30.28,West,270,8.0,25.0,34,0.00,,,0.00,Weather View 32 v70,2015-01-30 21:45:00,
2015-01-30 16:50:00,46.0,19.2,30.28,West,270,13.0,25.0,34,0.00,,,0.00,Weather View 32 v70,2015-01-30 21:50:00,
2015-01-30 16:55:00,45.0,18.3,30.29,NNW,338,7.0,25.0,34,0.00,,,0.00,Weather View 32 v70,2015-01-30 21:55:00,
2015-01-30 17:00:00,45.0,19.0,30.29,North,0,5.0,25.0,35,0.00,,,0.00,Weather View 32 v70,2015-01-30 22:00:00,